This demonstration page uses our WeatherBlox Daily Observations layout. Learn more.

Left ArrowRight Arrow

53.62937, 11.41316

Hourly Observations for April 6, 2016

Temp ( °F °C ) Dew Point ( °F °C ) Humidity (%) Winds ( mph kmh ) Pressure ( in mb ) Visibility ( mi km ) Precip ( " mm )
6:20 am 06:20 Mostly Clear 45 7 41 5 87 87 SW 16 26 29.71 1006 6 9 N/A
6:50 am 06:50 Mostly Sunny 45 7 41 5 87 87 SW 13 20 29.74 1007 5 8 N/A
7:20 am 07:20 Mostly Sunny 45 7 43 6 93 93 SW 14 22 29.74 1007 5 8 N/A
7:50 am 07:50 Mostly Cloudy 45 7 43 6 93 93 SW 14 22 29.74 1007 4 6 N/A
8:20 am 08:20 Mostly Cloudy with Mist and Fog 46 8 43 6 87 87 SW 15 24 29.74 1007 3 5 N/A
8:50 am 08:50 Mostly Cloudy 46 8 43 6 87 87 SW 16 26 29.77 1008 4 6 N/A
9:20 am 09:20 Mostly Sunny 48 9 43 6 82 82 SW 16 26 29.77 1008 4 7 N/A
9:50 am 09:50 Partly Cloudy 48 9 43 6 82 82 WSW 17 28 29.77 1008 6 9 N/A
10:20 am 10:20 Mostly Cloudy 50 10 43 6 76 76 WSW 17 28 29.77 1008 30 48 N/A
10:50 am 10:50 Mostly Cloudy 52 11 43 6 72 72 WSW 17 28 29.77 1008 30 48 N/A
11:20 am 11:20 Mostly Cloudy 52 11 41 5 67 67 SW 21 33 29.77 1008 30 48 N/A
11:50 am 11:50 Mostly Cloudy 52 11 41 5 67 67 WSW 18 30 29.77 1008 30 48 N/A
12:20 pm 12:20 Partly Cloudy 54 12 39 4 58 58 WSW 20 31 29.77 1008 30 48 N/A
12:50 pm 12:50 Mostly Cloudy 52 11 39 4 62 62 WSW 15 24 29.77 1008 30 48 N/A
1:20 pm 13:20 Mostly Cloudy 54 12 37 3 54 54 WSW 18 30 29.77 1008 30 48 N/A
1:50 pm 13:50 Mostly Cloudy 52 11 37 3 58 58 WSW 18 30 29.77 1008 30 48 N/A
2:20 pm 14:20 Mostly Cloudy 55 13 39 4 55 55 SW 18 30 29.77 1008 30 48 N/A
2:50 pm 14:50 Mostly Cloudy 54 12 37 3 54 54 WSW 16 26 29.74 1007 30 48 N/A
3:20 pm 15:20 Mostly Cloudy 55 13 37 3 51 51 SW 18 30 29.74 1007 30 48 N/A
3:50 pm 15:50 Mostly Cloudy 55 13 39 4 55 55 WSW 12 19 29.74 1007 30 48 N/A
4:20 pm 16:20 Mostly Cloudy 55 13 37 3 51 51 SW 15 24 29.71 1006 30 48 N/A
4:50 pm 16:50 Partly Cloudy 57 14 37 3 48 48 SW 18 30 29.71 1006 30 48 N/A
5:20 pm 17:20 Mostly Sunny 57 14 37 3 48 48 SW 14 22 29.71 1006 30 48 N/A
5:50 pm 17:50 Mostly Sunny 57 14 37 3 48 48 SSW 17 28 29.68 1005 30 48 N/A
6:20 pm 18:20 Partly Cloudy 55 13 39 4 55 55 SSW 15 24 29.68 1005 30 48 N/A
6:50 pm 18:50 Mostly Sunny 55 13 39 4 55 55 SSW 14 22 29.68 1005 30 48 N/A

Powered by AerisWeather